Voltar ao catálogo

STARLINK-30322

AtivoComunicaçõesVLEO
NORAD 57670·PAYLOAD·🇺🇸 United States

Lançado Aug 22, 2023 de Vandenberg Space Force Base

Loading…

Próximas Passagens (próximas 24 horas)

TLE

AtualizadoSource: CelesTrak SupGP

Época: Sep 15, 2026, 02:27 UTC

1 57670C 23124H   26258.10256944 -.00017918  00000+0 -52952-3 0  2582
2 57670  53.1606  44.7053 0001086  87.5620  57.5172 15.34391716    12

Acompanhe STARLINK-30322 em tempo real com AllMySat

Download on the App Store